ONEWEB-0378 (49304 NORAD) Tracking and Keplerian Element Data

This shows tracking and keplerian element data for the satellite.

Feedback or suggestion? Click here.




ElementValue
Catalog49304
NameONEWEB-0378
Epoch Orbit358
Epoch Day339.91667824
Epoch Year2021
RAAN274.9538
Inclination87.1991
Eccentricity0.0013256
Argument of Perigee62.6404
Mean Anonmoly85.9519
Mean Motion14.90969964
Decay Rate-0.00053803
L11 49304U 21090AB 21339.91667824 -.00053803 00000+0 -54914-2 0 9998
L22 49304 87.1991 274.9538 0013256 62.6404 85.9519 14.90969964 3584

Live tracking and technical data element details for ONEWEB-0378 (NORAD 49304). ONEWEB-0378 can be tracked NOW for your location showing map with azimuth and elevation plus other details from your city location.

Track the satellite on the map from your city or location and see movement details for azimuth, elevation, latitude, longitude, range, height, and movement on the map or in text.







IsCatalogInMostPopularTable: catalog: 49304, numindb: 3
Update: records affected: 1



GetName: 49304 ONEWEB-0378

Hit Count: updated at: Mon, 06 Dec 2021 15:06:43 GMT